Regional Weather Roundup
Issued by NWS Pendleton, OR

Home | Current Version | Previous Version | Text Only | Print | Product List | Glossary On
Versions: 1 2 3 4 5 6 7 8 9 10 11 12 13 14 15 16 17 18 19 20 21 22 23 24 25 26 27 28 29 30 31 32 33 34 35 36 37 38 39 40 41 42 43 44 45 46 47 48 49 50
935
ASUS46 KPDT 070525
RWRPDT
PENDLETON REGIONAL WEATHER ROUNDUP
NATIONAL WEATHER SERVICE PENDLETON OREGON
900 PM PST SAT FEB 6 2016

NOTE: FAIR INDICATES FEW OR NO CLOUDS BELOW 12,000 FEET WITH NO
SIGNIFICANT WEATHER AND/OR OBSTRUCTIONS TO VISIBILITY.

# INDICATES UNOFFICIAL STATION AND DATA

WAZ520-070610-
EAST SLOPES OF WASHINGTON CASCADES

CITY            SKY/WX      TMP DP  RH  WIND    PRES   REMARKS
#BUMPING DAM    N/A         28  N/A N/A CALM    N/A
#CLE ELUM HS    N/A         28  26  92  CALM    30.36S
#CLE ELUM 2NW   N/A         27  27  100 W1      N/A
#CLE ELUM LAKE  N/A         31  29  92  CALM    30.46S
#GLENWOOD       N/A         32  30  92  CALM    30.47R
#MANASTASH CYN  N/A         28  22  78  CALM    30.34R
#NELSON         N/A         N/A N/A N/A CALM    30.40R
#NELSON 3SW     N/A         28  26  92  CALM    30.68R
#NILE           N/A         29  27  92  CALM    29.72R
#RONALD 2NW     N/A         31  N/A N/A N1      30.22S
#SNOWDEN        N/A         32  22  66  CALM    N/A
#TEANAWAY 4NE   N/A         30  28  92  SW2     N/A
#TROUT LAKE 1NE N/A         33  31  92  CALM    30.49R
#TROUT LAKE 1E  N/A         34  33  96  CALM    30.36F
$$

WAZ521-070610-
SIMCOE HIGHLANDS

CITY            SKY/WX      TMP DP  RH  WIND    PRES   REMARKS
#BICKLETON HS   N/A         37  16  42  W5      N/A
#CENTERVILLE 1SWN/A         37  32  82  CALM    30.42F
#GOLDENDALE     N/A         41  34  76  CALM    N/A
#GOLDENDALE 1NE N/A         37  27  67  CALM    N/A
#GOODNOE HILLS  N/A         43  29  57  W8      30.30F
#LYLE 6NE       N/A         40  32  73  CALM    30.43R
$$

WAZ026-070610-
KITTITAS VALLEY

CITY            SKY/WX      TMP DP  RH  WIND    PRES   REMARKS
ELLENSBURG AP   CLEAR       32  25  75  CALM    30.41R
#ELLENSBURG CWU N/A         33  30  89  CALM    30.42R
#ELLENSBURG 3NE N/A         30  27  88  CALM    30.40R
#ELLENSBURG     N/A         33  33  100 CALM    N/A
#ELLENSBURG 1E  N/A         29  N/A N/A CALM    N/A
#KITTITAS 4N    N/A         30  26  85  E3      30.43R
#KITTITAS 3S    N/A         27  25  92  E2      30.47R
#THORP 6N       N/A         31  28  88  N3      30.48R
$$

WAZ027-070610-
YAKIMA VALLEY

CITY            SKY/WX      TMP DP  RH  WIND    PRES   REMARKS
SUNNYSIDE AP    MOCLDY      32  29  89  NE3     30.43S
YAKIMA AIRPORT  PTCLDY      34  28  78  W5      30.42S
YAKIMA-VAGABOND CLEAR       36  29  75  E2      30.40R
#DONALD 2NE     N/A         42  19  39  N3      29.26S
#GRANDVIEW      N/A         36  32  85  CALM    30.46S
#MABTON         N/A         39  36  89  S3      30.42F
#MOXEE 2E       N/A         35  23  61  NE1     30.39R
#NACHES 2SW     N/A         37  29  72  NW6     30.40S
#OUTLOOK DOT    N/A         N/A N/A N/A CALM    N/A
#TERRACE HTS    N/A         35  30  82  CALM    30.42S
#TOPPENISH      N/A         40  35  82  CALM    30.35F
#WEST VALLEY    N/A         36  30  79  CALM    30.43S
#W YAKIMA       N/A         39  30  70  N1      30.45R
#WHITE SWAN 5E  N/A         37  33  85  CALM    30.45S
#WILEY CITY 3W  N/A         35  26  69  CALM    30.38S
$$

WAZ028-070610-
LOWER COLUMBIA BASIN...WASHINGTON

CITY            SKY/WX      TMP DP  RH  WIND    PRES   REMARKS
PASCO           MOCLDY      39  33  79  E6      30.44F
PROSSER AWOS    N/A         36  34  92  N3      30.46F
RICHLAND AWOS   MOCLDY      37  35  92  N5      30.45S
#BENTON CITY    N/A         39  34  82  SW1     30.35F
#CONNELL 5N     N/A         36  34  92  N1      30.45F
#ELTOPIA 6NW    N/A         39  35  85  CALM    29.39S
#KAHLOTUS       N/A         37  33  85  S7      30.45F
#KENNEWICK 3S   N/A         43  34  70  CALM    30.44F
#PATERSON       N/A         43  35  73  CALM    30.42F
#PROSSER        N/A         41  33  73  CALM    30.43F
#SAGEMOOR 2W    N/A         37  33  85  N1      30.30S
#TOUCHET 2S     N/A         41  36  82  E1      30.43R
#WEST PASCO     N/A         41  34  76  N1      30.47F
$$

WAZ029-070610-
FOOTHILLS OF THE BLUES...WASHINGTON

CITY            SKY/WX      TMP DP  RH  WIND    PRES   REMARKS
WALLA WALLA AP  PTCLDY      40  32  73  E9      30.43S
#CLYDE 6NW      N/A         35  31  85  CALM    30.45F
#DAYTON SCHOOL  N/A         36  26  67  E2      30.43S
#LOWDEN 2SE     N/A         39  36  89  CALM    30.41S
#PLEASANT VIEW 1N/A         39  32  76  CALM    30.50S
#PRESCOTT       N/A         38  34  85  CALM    30.44F
#WHITMAN COLLEGEN/A         44  34  68  CALM    30.49S
#WAITSBURG 5S   N/A         38  31  76  NE3     30.54F
#WAITSBURG 8N   N/A         30  10  42  CALM    30.27S
#WALLA WALLA U  N/A         43  35  73  CALM    30.45S
#WHITMAN MISSIONN/A         40  36  85  CALM    30.45S
$$

WAZ030-070610-
BLUE MOUNTAINS...WASHINGTON

CITY            SKY/WX      TMP DP  RH  WIND    PRES   REMARKS
#DIXIE 5SE      N/A         41  20  43  S3      30.32S
#SKI BLUEWOOD   N/A         26  23  88  CALM    30.35F
$$

ORZ009-041-WAZ024-070610-
COLUMBIA RIVER GORGE

CITY            SKY/WX      TMP DP  RH  WIND    PRES   REMARKS
HOOD RIVER AP   PTCLDY      39  36  89  CALM    30.47R
THE DALLES AP   MOCLDY      43  36  76  NW6     30.45S
#ARLINGTON AIRPON/A         43  34  70  W3      30.44F
#ARLINGTON HS   N/A         45  34  65  CALM    30.34F
#CELILO DOT     N/A         46  29  51  SE3     N/A
#LYLE           N/A         44  38  79  N2      30.48R
#MARYHILL 2W    N/A         44  37  76  SE1     N/A
#MOSIER 1S      N/A         39  29  67  CALM    30.43S
#RUFUS DOT      N/A         46  36  68  CALM    N/A

$$

ORZ510-070610-
NORTH CENTRAL OREGON

CITY            SKY/WX      TMP DP  RH  WIND    PRES   REMARKS
#CHENOWITH 1W   N/A         41  32  70  NW3     N/A
#COW CYN RST AREN/A         42  27  55  CALM    N/A
#DUFUR 9E       N/A         42  25  51  W3      30.49S
#GRASS VALLEY 1SN/A         38  30  73  SW5     30.47F
#KENT DOT       N/A         38  20  48  N5      N/A
#MAUPIN SCHOOL  N/A         44  32  62  N1      30.44F
#MORO SCHOOL    N/A         39  35  85  CALM    30.40F
#SHANIKO 5WSW   N/A         38  20  48  E8      N/A
#SHANIKO 4NW    N/A         39  28  64  S7      30.38F
#TYGH VALLEY 2NEN/A         42  32  67  CALM    30.43F
#WAPANITIA AIRPON/A         39  31  73  CALM    30.46S
#WASCO 5NE      N/A         37  32  82  CALM    30.43F
$$

ORZ511-070610-
CENTRAL OREGON

CITY            SKY/WX      TMP DP  RH  WIND    PRES   REMARKS
BEND AIRPORT    MOCLDY      34  32  92  CALM    30.43R
MADRAS AIRPORT  MOCLDY      34  28  78  S8      30.43S
PRINEVILLE AP   PTCLDY      34  32  92  CALM    30.41S
REDMOND AIRPORT PTCLDY      33  28  82  S5      30.41S
#ASHWOOD SCHOOL N/A         38  33  82  CALM    30.35S
#BEND 6E        N/A         38  31  76  CALM    30.43R
#BEND 1SW       N/A         38  34  85  CALM    N/A
#BEND-KIM LN    N/A         38  32  79  CALM    30.37F
#LAKE BILLY CHINN/A         40  N/A N/A CALM    30.48R
#MADRAS         N/A         37  30  75  SE3     N/A
#POWELL BUTTE 3EN/A         41  34  76  SW3     N/A
#PRINEVILLE 3N  N/A         37  34  89  NE1     30.45R
#WARM SPRINGS   N/A         40  33  76  CALM    30.38S

$$


ORZ509-070610-
EAST SLOPES OF OREGON CASCADES

CITY            SKY/WX      TMP DP  RH  WIND    PRES   REMARKS
SISTERS AWOS    N/A         37  32  82  CALM    30.35S
#BLUE BOX PASS  N/A         37  N/A N/A CALM    N/A
#BLACK BUTTE RNCN/A         38  35  89  CALM    30.44R
#CAMP SHERMAN   N/A         35  32  89  CALM    30.54S
#LA PINE DOT    N/A         37  35  92  CALM    N/A
#LA PINE 4NW    N/A         36  33  89  CALM    30.46S
#LAVA BUTTE DOT N/A         37  34  89  CALM    N/A
#SISTERS AIRPOR N/A         37  35  92  CALM    30.17S
#SISTERS ODOT   N/A         37  N/A N/A CALM    N/A
#SISTERS 3N     N/A         36  26  67  CALM    30.38S
#SUNRIVER       N/A         36  34  92  CALM    30.46S
#SUTTLE LK DOT  N/A         31  31  100 W9      N/A
#TUMALO 3W      N/A         39  32  76  E3      30.33R
#WANOGA BUTTE D N/A         36  35  96  CALM    N/A

$$

ORZ044-070610-
LOWER COLUMBIA BASIN...OREGON

CITY            SKY/WX      TMP DP  RH  WIND    PRES   REMARKS
HERMISTON       CLOUDY      42  35  76  S5      30.43S
#BOARDMAN SCHOOLN/A         43  37  79  CALM    30.44F
#BOARDMAN 8SW   N/A         44  37  76  CALM    30.43F
#ECHO 8SW       N/A         41  31  67  SW1     30.43F
#I-84 EX 198 DOTN/A         45  31  58  CALM    N/A
#IONE SCHOOL    N/A         41  26  55  CALM    30.37F
#UMATILLA SCHOOLN/A         40  39  96  S1      30.43F
#UMATILLA       N/A         43  34  70  CALM    30.37F
$$

ORZ507-070610-
NORTHERN FOOTHILLS OF THE BLUES

CITY            SKY/WX      TMP DP  RH  WIND    PRES   REMARKS
PENDLETON AIRPT CLOUDY      39  33  79  E3      30.41S
#ADAMS 3WNW     N/A         39  35  85  NE2     30.45S
#ATHENA         N/A         41  30  65  CALM    30.46S
#CAYUSE         N/A         43  31  62  E1      30.43S
#HELIX SCHOOL   N/A         38  34  85  CALM    30.44S
#HELIX 3N       N/A         41  31  67  S3      30.35F
#HOLDMAN 5SE    N/A         43  40  89  CALM    30.33S
#HOLDMAN 6E     N/A         40  32  73  CALM    30.25S
#M-F GROVE ELEM N/A         41  32  70  CALM    30.40R
#M-FREEWATER 5SEN/A         43  32  65  CALM    30.40S
#PDT AQUATIC CTRN/A         41  27  57  N3      30.43S
#PDT SUNRIDGE   N/A         39  34  82  CALM    30.43S
#PENDLETON 7NW  N/A         40  34  79  CALM    26.60S
#PILOT ROCK     N/A         39  26  59  CALM    30.39F
#TUTUILLA       N/A         38  34  85  CALM    30.42S
#UMAPINE 2E     N/A         40  36  85  CALM    30.41R
#WESTON SCHOOL  N/A         44  26  49  CALM    30.37R

$$

ORZ508-070610-
SOUTHERN FOOTHILLS OF THE BLUES

CITY            SKY/WX      TMP DP  RH  WIND    PRES   REMARKS
LEXINGTON       CLOUDY      41  28  59  E5      30.43F
#CONDON SCHOOL  N/A         38  30  73  S1      30.32F
#CONDON 5W      N/A         38  25  59  S5      30.34F
#FOSSIL SCHOOL  N/A         38  31  76  CALM    30.32F
#HEPPNER EOC    N/A         40  27  59  E7      30.37S
#HEPPNER 4NE    N/A         36  25  64  E1      30.43S
#LEXINGTON 2SE  N/A         42  27  55  SE6     30.36F
#MIKKALO        N/A         40  29  64  SE1     30.47F
#OLEX 4N        N/A         41  35  79  S5      30.37F
#RUGGS 5NE      N/A         38  21  50  SE1     30.55S
#RUGGS 2SW      N/A         40  33  76  SW5     30.44F

$$

ORZ502-503-070610-
BLUE MOUNTAINS

CITY            SKY/WX      TMP DP  RH  WIND    PRES   REMARKS
MEACHAM         CLOUDY      32  27  82  CALM    30.38F
#BATTLE MTN DOT N/A         36  27  69  SE3     N/A
#LADD CYN SMT   N/A         32  25  75  SE8     N/A
#LADD CREEK ODOTN/A         34  28  78  SW6     N/A
#LONG CREEK HS  N/A         38  37  96  CALM    N/A
#N POWDER DOT   N/A         30  27  88  CALM    N/A
#PIKES PEAK     N/A         40  17  39  SW8     27.99S
#TOLLGATE       N/A         28  26  92  CALM    30.18S
#TROY SCHOOL    N/A         40  32  73  SW1     30.32S
#UKIAH          N/A         32  29  89  CALM    30.40R
#WESTON 4E      N/A         39  27  62  S1      30.43S
$$

ORZ505-070610-
JOHN DAY BASIN

CITY            SKY/WX      TMP DP  RH  WIND    PRES   REMARKS
JOHN DAY        PTCLDY      39  33  79  CALM    30.42S
#DAYVILLE SCHOOLN/A         41  33  73  CALM    30.36S
#MITCHELL       N/A         37  33  85  CALM    30.54F
#MITCHELL 8NW   N/A         41  32  70  CALM    30.63F
#MONUMENT HS    N/A         40  32  73  N2      30.35S
#MT. VERNON 5SE N/A         38  33  82  CALM    30.36S
#SPRAY SCHOOL   N/A         39  N/A N/A CALM    N/A
#WINLOCK        N/A         38  31  76  CALM    30.34F
$$

ORZ506-070610-
OCHOCO AND JOHN DAY HIGHLANDS

CITY            SKY/WX      TMP DP  RH  WIND    PRES   REMARKS
#HORSE RIDGE DO N/A         37  34  89  S1      N/A
#KEYES SMT DOT  N/A         37  31  79  SW8     N/A
#PAULINA SCHOOL N/A         48  34  58  CALM    30.33R
#PINE MTN OBS   N/A         36  34  92  SW1     N/A
#PRAIRIE CITY   N/A         35  27  72  CALM    30.40R
#SENECA         N/A         32  N/A N/A CALM    N/A
#SENECA 9NW     N/A         31  29  92  CALM    30.51R
$$

ORZ049-070610-
GRANDE RONDE VALLEY

CITY            SKY/WX      TMP DP  RH  WIND    PRES   REMARKS
LA GRANDE       CLOUDY      37  27  67  S5      30.41F
#COVE           N/A         35  33  92  S1      30.42F
#COVE SCHOOL    N/A         35  31  85  CALM    30.40F
#COVE 6NW       N/A         36  30  79  SE1     30.32F
#ELGIN 3N       N/A         36  26  67  CALM    30.36S
#ELGIN 1E       N/A         37  30  75  CALM    N/A
#IMBLER SCHOOL  N/A         35  30  82  SW5     30.35F
#ISLAND CITY 4N N/A         41  40  96  CALM    30.45R
#LADD CYN DOT   N/A         37  30  75  SE22    N/A    WCI 26
#UNION 1S       N/A         37  31  79  SE9     30.41S
$$

ORZ050-070610-
WALLOWA COUNTY

CITY            SKY/WX      TMP DP  RH  WIND    PRES   REMARKS
JOSEPH AIRPORT  CLOUDY      34  28  78  CALM    30.39F
#ENTERPRISE AP  N/A         34  27  75  CALM    30.28F
#ENTERPRISE HS  N/A         34  30  85  CALM    30.37S
#IMNAHA SCHOOL  N/A         43  30  60  SW5     30.40S
#JOSEPH 3N      N/A         31  25  78  CALM    30.37S
#JOSEPH 3W      N/A         33  23  66  CALM    30.17F
#LOSTINE        N/A         33  30  89  CALM    30.30S
#MT HOWARD 8000 N/A         26   6  42  W6      30.29S
#PROMISE 1S     N/A         33  28  82  CALM    30.59R
#WALLOWA SCHOOL N/A         33  30  89  CALM    30.36S



$$



USA.gov is the U.S. government's official web portal to all federal, state and local government web resources and services.